Location: Mercogliano
(40.9167°N, 14.7333°E)
Time: 05:08:46
(UTC+00:00)

SL-16 R/B - Pass Details

Date: 18 September 2020
Orbit: 842 x 848 km, 71.0° (Epoch: 25 October)

Event Time Altitude Azimuth Distance (km) Brightness Sun altitude
Rises 17:38:14 0° 327° (NNW) 3,413 6.0 -7.2°
Reaches altitude 10° 17:40:54 10° 318° (NW) 2,472 5.5 -7.7°
Maximum altitude 17:45:54 33° 256° (WSW) 1,375 4.1 -8.6°
Drops below altitude 10° 17:50:54 10° 193° (SSW) 2,454 4.7 -9.5°
Sets 17:53:32 0° 184° (S) 3,383 5.3 -10.0°
